Powrót do katalogu

CZ-6A DEB

AktywnyPO
NORAD 61123·DEBRIS·🇨🇳 China

Wystrzelony Aug 6, 2024 z Taiyuan Satellite Launch Center

Loading…

Następne Przeloty (najbliższe 24 godziny)

TLE

ŚwieżeSource: Space-Track

Epoka: Sep 14, 2026, 07:02 UTC

1 61123U 24140PR  26257.29368126  .00000461  00000-0  21216-3 0  9999
2 61123  88.9931 264.6108 0048623 258.5436 101.0290 14.18922924106817

Śledź CZ-6A DEB w czasie rzeczywistym z AllMySat

Download on the App Store